User: anonymous   Login
Location: Peebles
(55.6412°N, 3.1714°W)
Time: 23:53:53
(UTC+00:00)
Language:

IRAS Rocket - Orbit

View from above orbital plane
View from above orbital plane
View from above satellite
View from above satellite

Ground track
Ground track

The orbit data is extracted from the following two-line orbital elements,

1 13778U 83004B   21331.03342370  .00000047  00000-0  58038-4 0  9992
2 13778 100.0932 163.7689 0021648 106.3592 253.9956 14.09064599995458
Epoch (UTC): 27 November 2021 00:48:07
Eccentricity: 0.0021648
inclination: 100.0932°
perigee height: 847 km
apogee height: 878 km
right ascension of ascending node: 163.7689°
argument of perigee: 106.3592°
revolutions per day: 14.09064599
mean anomaly at epoch: 253.9956°
orbit number at epoch: 99545

The dashed part of the orbit path shows where the satellite is in the earth's shadow,  

DLR